Location: ??????
(55.2000°N, 38.3000°E)
Time: 01:17:06
(UTC+00:00)

NOSS 2-3 (C) - Pass Details

Date: 15 November 2025
Orbit: 460 x 1717 km, 63.3° (Epoch: 12 December)

Event Time Altitude Azimuth Distance (km) Brightness Sun altitude
Exits shadow 03:58:03 - 311° (NW) 2,035 5.6 -8.7°
Reaches altitude 10° 03:58:09 10° 311° (NW) 2,000 5.6 -8.7°
Maximum altitude 04:02:35 58° 32° (NNE) 879 4.4 -8.1°
Drops below altitude 10° 04:08:37 10° 111° (ESE) 2,705 8.6 -7.3°
Sets 04:11:42 0° 115° (ESE) 3,873 10.4 -6.9°
